#timestamp,LO_Frequency,Hit,StdDev 
1623992415.1,286047000.8,N
1623992416.0,286047000.8,N
1623992435.8,286047001.1,N
1623992455.7,286046998.6,N
1623992475.5,286046999.6,N
1623992495.3,286046999.2,N
1623992515.2,286046998.5,N
1623992535.0,286046998.1,N
1623992535.9,286046998.1,N
1623992555.8,286047000.5,N
1623992575.6,286046999.9,N
1623992595.4,286046998.6,N
1623992645.3,286046997.2,E
1623992655.2,286046999.6,N
1623992675.1,286046998.9,P
1623992676.0,286046998.9,P
1623992695.8,286047000.6,N
1623992715.6,286047000.0,N
1623992735.5,286047000.1,N
1623992755.3,286047002.1,Y
1623992775.2,286047001.0,P
1623992795.9,286047000.3,N
1623992815.7,286046999.8,N
1623992835.6,286047001.9,Y
1623992855.4,286047002.5,P
1623992875.2,286047002.0,N
1623992895.1,286047000.2,N
1623992896.0,286047000.2,N
1623992915.8,286046999.9,N
1623992935.7,286047002.3,N
1623992955.5,286047002.1,N
1623992975.3,286047000.2,N
1623992995.2,286047000.1,N
1623993015.0,286047001.0,N
1623993015.9,286047001.0,N
1623993035.7,286046998.4,N
1623993055.6,286046998.5,N
1623993075.4,286047000.7,N
1623993095.3,286047001.1,N
1623993115.1,286047001.0,N
1623993116.0,286047001.0,N
1623993135.8,286047001.1,N
1623993155.7,286046998.7,N
1623993175.5,286047001.2,N
1623993195.3,286047000.7,N
1623993215.2,286046999.1,N
1623993235.0,286046996.9,N
1623993235.9,286046996.9,N
1623993255.8,286046999.6,N
1623993275.6,286046996.6,N
1623993295.4,286046997.4,N
1623993315.3,286046996.6,N
1623993335.1,286046997.1,N
1623993355.9,286046997.3,N
1623993375.7,286046995.1,N
1623993395.5,286046995.2,N
1623993415.4,286046994.9,N
1623993435.2,286046997.9,N
1623993455.0,286046997.6,N
1623993455.9,286046997.6,N
1623993475.8,286046997.6,N
1623993495.6,286046995.4,N
1623993515.5,286046995.7,N
1623993535.3,286046995.6,N
1623993555.1,286046995.7,N
1623993575.9,286046993.4,Y
1623993595.7,286046995.0,P
1623993615.5,286046996.3,N
1623993635.4,286046996.2,P
1623993655.2,286046995.1,Y
1623993675.1,286046998.3,P
1623993676.0,286046998.3,N
1623993695.8,286047000.7,N
1623993715.6,286047000.9,N
1623993735.5,286047001.1,N
1623993755.3,286046998.3,N
1623993775.2,286047001.2,N
1623993795.9,286046998.9,N
1623993815.7,286046998.9,N
1623993835.6,286046998.6,N
1623993855.4,286047000.6,N
1623993875.2,286047000.5,N
1623993895.1,286046998.3,N
1623993896.0,286046998.3,N
1623993915.8,286046999.3,N
1623993935.7,286046999.1,N
1623993955.5,286046997.8,N
1623993975.3,286046997.9,N
1623993995.2,286046995.1,Y
1623994015.0,286046995.6,P
1623994015.9,286046995.6,N
1623994035.8,286046995.6,N
1623994055.6,286046995.2,Y
1623994075.4,286047000.9,P
1623994095.3,286047000.6,N
1623994115.1,286047001.2,N
1623994135.8,286047000.5,N
1623994155.7,286047000.5,N
1623994175.5,286047000.5,N
1623994195.4,286047000.5,N
1623994215.2,286047002.0,N
1623994235.0,286047003.9,N
1623994235.9,286047003.9,N
1623994255.8,286047003.2,N
1623994275.6,286047005.8,Y
1623994295.5,286047003.8,P
1623994315.3,286047003.1,N
1623994335.1,286047004.1,P
1623994355.9,286047003.2,N
1623994375.7,286047005.2,Y
1623994395.6,286047001.3,P
1623994415.4,286046999.7,N
1623994435.2,286047001.0,N
1623994455.1,286046999.7,N
1623994456.0,286046999.7,N
1623994475.8,286047002.0,N
1623994495.7,286047002.7,N
1623994515.5,286047000.2,N
1623994535.3,286047002.8,N
1623994555.2,286047002.1,N
1623994575.0,286047002.5,N
1623994575.9,286047002.5,N
1623994595.7,286047002.5,N
1623994615.6,286047002.7,N
1623994635.4,286047002.7,N
1623994655.3,286047002.3,N
1623994675.1,286047001.6,N
1623994676.0,286047001.6,N
1623994695.8,286047003.8,Y
1623994715.7,286047001.9,P
1623994735.5,286046999.8,N
1623994755.3,286047000.3,N
1623994775.2,286047001.9,N
1623994795.0,286047004.3,Y
1623994795.9,286047004.3,P
1623994815.8,286047002.4,N
1623994835.6,286047000.2,N
1623994855.4,286047002.8,N
1623994875.3,286047002.2,N
1623994895.1,286046999.9,N
1623994915.9,286047000.3,N
1623994935.7,286047002.4,N
1623994955.5,286047002.7,N
1623994975.4,286047000.4,N
1623994995.2,286046999.8,N
1623995015.0,286047002.2,N
1623995015.9,286047002.2,N
1623995035.8,286046999.8,N
1623995055.6,286047003.6,N
1623995075.5,286047001.7,N
1623995095.3,286046999.8,N
1623995115.1,286047000.9,N
1623995135.9,286047000.9,N
1623995155.7,286047000.0,N
1623995175.6,286047000.6,N
1623995195.4,286047002.6,N
1623995215.2,286047002.6,N
1623995235.1,286047004.3,Y
1623995236.0,286047004.3,P
1623995255.8,286047001.0,N
1623995275.6,286046999.3,N
1623995295.5,286046998.5,N
1623995315.3,286047000.1,N
1623995335.2,286047000.3,N
1623995355.9,286047000.0,N
1623995375.7,286046999.7,N
1623995395.6,286047002.5,N
1623995415.4,286046999.8,N
1623995435.2,286047000.1,N
1623995455.1,286047000.3,N
1623995456.0,286047000.3,N
1623995475.8,286046999.7,N
1623995495.7,286047000.6,N
1623995515.5,286047000.5,N
1623995535.3,286047000.3,N
1623995555.2,286046999.8,N
1623995575.0,286046999.8,N
1623995575.9,286046999.8,N
1623995595.8,286047000.0,N
1623995615.6,286047000.2,N
1623995635.4,286046998.1,N
1623995655.3,286046999.2,N
1623995675.1,286046998.6,N
1623995695.9,286047000.2,N
1623995715.7,286047002.8,N
1623995735.5,286047002.7,N
1623995755.4,286047000.5,N
1623995775.2,286047000.7,N
1623995795.0,286047000.1,N
1623995795.9,286047000.1,N
1623995815.8,286047000.2,N
1623995835.6,286047002.2,N
1623995855.5,286047004.3,Y
1623995875.3,286047003.8,P
1623995895.1,286047001.4,N
1623995915.9,286047003.9,N
1623995935.7,286047006.0,Y
1623995955.6,286046999.9,P
1623995975.4,286047000.6,N
1623995995.2,286047001.2,N
